Location: El Manguito
(10.2358°N, 67.3634°W)
Time: 20:33:18
(UTC+00:00)

Aurora 2 Rocket - Pass Details

Date: 05 December 2024
Orbit: 386 x 1590 km, 25.0° (Epoch: 12 January)

Event Time Altitude Azimuth Distance (km) Brightness Sun altitude
Rises 22:38:23 0° 202° (SSW) 4,295 7.6 -8.0°
Reaches altitude 10° 22:43:56 10° 174° (S) 3,568 6.6 -9.3°
Maximum altitude 22:47:13 12° 154° (SSE) 3,504 6.3 -10.0°
Drops below altitude 10° 22:50:38 10° 133° (SE) 3,749 6.3 -10.8°
Enters shadow 22:55:59 - 109° (ESE) 4,614 6.6 -12.0°
